User: anonymous   Login
Location: Fort Wayne
(41.1310°N, 85.1290°W)
Time: 16:47:39
(UTC-04:00)
Language:

OAO 2 Rocket - Orbit

View from above orbital plane
View from above orbital plane
View from above satellite
View from above satellite

Ground track
Ground track

The orbit data is extracted from the following two-line orbital elements,

1 03598U 68110B   14304.12017434  .00000652  00000-0  15566-3 0  7509
2 03598 034.9947 357.0998 0049420 001.8076 094.4591 14.53767528426658
Epoch (UTC): 31 October 2014 02:53:03
Eccentricity: 0.0049420
inclination: 34.9947°
perigee height: 678 km
apogee height: 748 km
right ascension of ascending node: 357.0998°
argument of perigee: 1.8076°
revolutions per day: 14.53767528
mean anomaly at epoch: 94.4591°
orbit number at epoch: 42665

The dashed part of the orbit path shows where the satellite is in the earth's shadow,  

DLR